User: anonymous   Login
Location: Unspecified
(0.0000°N, 0.0000°E)
Time: 02:34:55
(UTC+00:00)
Language:

GALILEO 7 (263) - Orbit

View from above orbital plane
View from above orbital plane
View from above satellite
View from above satellite

Ground track
Ground track

The orbit data is extracted from the following two-line orbital elements,

1 40544U 15017A   18322.11997760 -.00000056  00000-0  00000+0 0  9998
2 40544  56.0151  57.4547 0004120 231.4418 128.5261  1.70475527 22668
Epoch (UTC): 18 November 2018 02:52:46
Eccentricity: 0.0004120
inclination: 56.0151°
perigee height: 23209 km
apogee height: 23234 km
right ascension of ascending node: 57.4547°
argument of perigee: 231.4418°
revolutions per day: 1.70475527
mean anomaly at epoch: 128.5261°
orbit number at epoch: 2266

The dashed part of the orbit path shows where the satellite is in the earth's shadow,  

DLR